Find CE-SAT-IIB

NORAD ID: 46818 Int'l Des: 2020-077 Owner: CANON Country: J operational
LEOCIRCULARRETROGRADE

当前视图

正在加载3D地球...

About CE-SAT-IIB

CE-SAT-IIB (NORAD 46818) is a satellite launched Oct 28, 2020 by CANON of J. It operates in LEO, CIRCULAR, RETROGRADE orbit with a mass of 35.00 kg.

即将过境

Passes for default location (London). Set your location on the main map for personalized predictions.

高度历史

Loading altitude history...

两行轨道根数

1 46818U 20077F 26194.42298830 .03477743 23961-5 47012-3 0 9999
2 46818 97.1784 279.7588 0007488 245.0971 114.9548 16.35354727319510
Epoch: Jul 13, 2026 • Age: 28 hours

当前状态

高度 175.7 km
远地点 / 近地点 N/A
速度 7.80 km/s
星下点 67.89°N, 116.68°E
发射日期 Oct 28, 2020
运行时间 5.7 years
类型 other

技术详情

分类 Payload
质量 35.00 kg
干质量 35.00 kg
总质量 35.00 kg
长度 0.90 m
直径 0.50 m
跨度 0.90 m
形状 Box
制造商 CANON
平台类型 CE-SAT
阶段状态 In Orbit
所有者/国家 CANON/J

Most Searched